STARLINK-11314 [DTC]

Last updated on Thu Nov 21 2024 00:02:05 GMT+0000 (Coordinated Universal Time)

1 61878U 24204E 24325.58335648 -.00498672 00000+0 -20520-2 0 9998 2 61878 53.1649 174.9109 0000560 92.1637 170.5339 15.86405604 3022
UTC large
Height (km)
Speed (km/s)
/
Latitude / Longitude
Inclination (degrees)
Orbital Period (minutes)
Azimuth
Elevation
Range (km)
Doppler Factor

Next 0 passes for location: London (51.5072 / 0.1276)

Sorry there are no passes over London.